Clinton-Sherman, OK

6:29 PM CST on November 22, 2017 (GMT -0600)
Clinton-Sherman

Weather History for KCSM - July, 2013

Change the Weather History Date:

Monday, July 1, 2013

  Actual Average Record
Temperature  
Mean Temperature 70 °F -  
Max Temperature 84 °F 90 °F 100 °F (1997)
Min Temperature 59 °F 68 °F 59 °F (2013)
Cooling Degree Days 6    
Growing Degree Days 20 (Base 50)    
Moisture  
Dew Point 47 °F    
Average Humidity 45    
Maximum Humidity 78    
Minimum Humidity 24    
Precipitation  
Precipitation 0.00 in - - ()
Sea Level Pressure  
Sea Level Pressure 30.08 in    
Wind  
Wind Speed 8 mph (NNE)    
Max Wind Speed 20 mph    
Max Gust Speed 23 mph    
Visibility 8 miles    
Events      
Averages and records for this station are not official NWS values.
T = Trace of Precipitation, MM = Missing Value Source: NWS Daily Summary

Daily Weather History Graph

Daily Weather History Graph

Search for Another Location

Airport or City:

Trip Planner

Search our weather history database for the weather conditions in past years. The results will help you decide how hot, cold, wet, or windy it might be!

Date:

Astronomy

Jul. 01, 2013 Rise Set
Actual Time 6:25 AM CDT 8:55 PM CDT
Civil Twilight 5:55 AM CDT 9:25 PM CDT
Nautical Twilight 5:19 AM CDT 10:02 PM CDT
Astronomical Twilight 4:38 AM CDT 10:42 PM CDT
Moon 1:48 AM CDT (7/1) 3:19 PM CDT (7/1)
Length of Visible Light 15h 29m
Length of Day
14h 29m
Waning Crescent, 35% of the Moon is Illuminated
Jul 1
Waning Crescent
Jul 8
New
Jul 15
First Quarter
Jul 22
Full
Jul 29
Last Quarter

Hourly Weather History & Observations

Time (CDT) Temp. Dew Point Humidity Pressure Visibility Wind Dir Wind Speed Gust Speed Precip Events Conditions
12:53 AM 68.0 °F 52.0 °F 56% 30.03 in 9.0 mi NE 5.8 mph - N/A   Clear
1:53 AM 63.0 °F 51.1 °F 65% 30.04 in 10.0 mi NNE 4.6 mph - N/A   Clear
2:53 AM 62.1 °F 51.1 °F 67% 30.06 in 10.0 mi North 3.5 mph - N/A   Clear
3:53 AM 61.0 °F 51.1 °F 70% 30.05 in 10.0 mi NNW 5.8 mph - N/A   Clear
4:53 AM 60.1 °F 52.0 °F 75% 30.06 in 10.0 mi NW 6.9 mph - N/A   Clear
5:53 AM 59.0 °F 52.0 °F 78% 30.09 in 9.0 mi NW 6.9 mph - N/A   Clear
6:53 AM 62.1 °F 51.1 °F 67% 30.10 in 8.0 mi NNW 9.2 mph - N/A   Clear
7:53 AM 64.9 °F 52.0 °F 63% 30.12 in 8.0 mi NNW 8.1 mph - N/A   Clear
8:53 AM 69.1 °F 52.0 °F 54% 30.13 in 10.0 mi North 9.2 mph - N/A   Clear
9:53 AM 73.0 °F 53.1 °F 49% 30.14 in 10.0 mi NNE 10.4 mph - N/A   Clear
10:53 AM 77.0 °F 51.1 °F 40% 30.13 in 10.0 mi North 10.4 mph 18.4 mph N/A   Partly Cloudy
11:53 AM 78.1 °F 50.0 °F 37% 30.12 in 10.0 mi North 10.4 mph - N/A   Scattered Clouds
12:53 PM 80.1 °F 48.9 °F 34% 30.11 in 10.0 mi NNE 11.5 mph - N/A   Partly Cloudy
1:53 PM 82.0 °F 48.0 °F 30% 30.10 in 10.0 mi North 13.8 mph 21.9 mph N/A   Partly Cloudy
2:53 PM 81.0 °F 46.9 °F 30% 30.09 in 10.0 mi Variable 6.9 mph 19.6 mph N/A   Partly Cloudy
3:53 PM 82.9 °F 46.9 °F 28% 30.08 in 9.0 mi NE 11.5 mph 18.4 mph N/A   Scattered Clouds
4:53 PM 82.0 °F 45.0 °F 27% 30.06 in 8.0 mi NNE 9.2 mph - N/A   Partly Cloudy
5:53 PM 82.9 °F 42.1 °F 24% 30.05 in 8.0 mi North 17.3 mph 23.0 mph N/A   Partly Cloudy
6:53 PM 82.0 °F 42.1 °F 24% 30.04 in 8.0 mi NNE 13.8 mph - N/A   Clear
7:53 PM 80.1 °F 39.9 °F 24% 30.06 in 4.0 mi NE 19.6 mph - N/A   Haze
8:53 PM 75.0 °F 37.9 °F 26% 30.08 in 4.0 mi NE 9.2 mph - N/A   Haze
9:53 PM 68.0 °F 39.0 °F 35% 30.09 in 6.0 mi NNE 5.8 mph - N/A   Haze
10:53 PM 66.9 °F 39.9 °F 37% 30.10 in 7.0 mi NNE 5.8 mph - N/A   Clear
11:53 PM 66.0 °F 41.0 °F 40% 30.11 in 7.0 mi NNE 4.6 mph - N/A   Clear